Location: Aciu?a
(46.2833°N, 22.4500°E)
Time: 19:01:45
(UTC+00:00)

Cosmos 1455 - Pass Details

Date: 07 June 2022
Orbit: 492 x 514 km, 82.5° (Epoch: 30 June)

Event Time Altitude Azimuth Distance (km) Brightness Sun altitude
Rises 00:13:34 0° 329° (NNW) 2,587 6.2 -17.0°
Reaches altitude 10° 00:17:01 10° 295° (WNW) 1,700 4.8 -16.8°
Maximum altitude 00:18:12 11° 276° (W) 1,619 4.5 -16.7°
Enters shadow 00:18:25 11° 272° (W) 1,621 4.5 -16.7°
